| time (UTC) | temp F | wind direction | speed MPH | gust MPH | rain 1hr in | rain 24hr in | rain mn in | humidity % | barometer mb |
| 20260505095933 | 59 | 90 | 1.0 | 3.0 | 0.00 | 0.00 | 0.00 | 54 | 1099.4 |
| 20260505095430 | 59 | 43 | 3.0 | 5.0 | 0.00 | 0.00 | 0.00 | 53 | 1099.5 |
| 20260505094926 | 59 | 131 | 1.0 | 3.0 | 0.00 | 0.00 | 0.00 | 54 | 1099.6 |
| 20260505094423 | 59 | 153 | 3.0 | 5.0 | 0.00 | 0.00 | 0.00 | 55 | 1099.4 |
| 20260505093919 | 59 | 60 | 2.0 | 3.0 | 0.00 | 0.00 | 0.00 | 54 | 1099.6 |
| 20260505093416 | 59 | 104 | 2.0 | 3.0 | 0.00 | 0.00 | 0.00 | 55 | 1099.9 |
| 20260505092913 | 59 | 131 | 2.0 | 3.0 | 0.00 | 0.00 | 0.00 | 55 | 1099.6 |
| 20260505092411 | 59 | 32 | 1.0 | 3.0 | 0.00 | 0.00 | 0.00 | 55 | 1099.6 |
| 20260505091908 | 59 | 137 | 3.0 | 5.0 | 0.00 | 0.00 | 0.00 | 54 | 1099.5 |
| 20260505091406 | 59 | 134 | 3.0 | 5.0 | 0.00 | 0.00 | 0.00 | 55 | 1099.7 |
| 20260505090904 | 59 | 49 | 2.0 | 5.0 | 0.00 | 0.00 | 0.00 | 56 | 1099.6 |
| 20260505090402 | 59 | 138 | 3.0 | 5.0 | 0.00 | 0.00 | 0.00 | 56 | 1099.7 |
| 20260505085859 | 59 | 120 | 1.0 | 5.0 | 0.00 | 0.00 | 0.00 | 55 | 1099.9 |
| 20260505085357 | 59 | 144 | 2.0 | 6.0 | 0.00 | 0.00 | 0.00 | 55 | 1099.7 |
| 20260505084855 | 59 | 140 | 5.0 | 6.0 | 0.00 | 0.00 | 0.00 | 55 | 1099.7 |
| 20260505084353 | 59 | 145 | 1.0 | 3.0 | 0.00 | 0.00 | 0.00 | 55 | 1099.7 |
| 20260505083850 | 60 | 142 | 4.0 | 6.0 | 0.00 | 0.00 | 0.00 | 55 | 1100.0 |
| 20260505083347 | 60 | 125 | 2.0 | 6.0 | 0.00 | 0.00 | 0.00 | 54 | 1100.0 |
| 20260505082844 | 60 | 139 | 4.0 | 5.0 | 0.00 | 0.00 | 0.00 | 54 | 1099.7 |
| 20260505082339 | 60 | 129 | 3.0 | 7.0 | 0.00 | 0.00 | 0.00 | 54 | 1100.0 |
| 20260505081836 | 60 | 136 | 4.0 | 6.0 | 0.00 | 0.00 | 0.00 | 54 | 1099.9 |
| 20260505081333 | 60 | 156 | 3.0 | 7.0 | 0.00 | 0.00 | 0.00 | 53 | 1099.7 |
| 20260505080830 | 60 | 130 | 4.0 | 6.0 | 0.00 | 0.00 | 0.00 | 53 | 1099.9 |
| 20260505080326 | 60 | 133 | 4.0 | 10.0 | 0.00 | 0.00 | 0.00 | 53 | 1099.9 |
| 20260505075821 | 60 | 135 | 5.0 | 8.0 | 0.00 | 0.00 | 0.00 | 53 | 1099.9 |
| 20260505075319 | 60 | 160 | 4.0 | 10.0 | 0.00 | 0.00 | 0.00 | 53 | 1099.9 |
| 20260505074816 | 60 | 134 | 4.0 | 8.0 | 0.00 | 0.00 | 0.00 | 53 | 1099.9 |
| 20260505074313 | 60 | 131 | 3.0 | 8.0 | 0.00 | 0.00 | 0.00 | 54 | 1100.1 |
| 20260505073810 | 60 | 145 | 4.0 | 8.0 | 0.00 | 0.00 | 0.00 | 54 | 1100.0 |
| 20260505073308 | 60 | 133 | 5.0 | 8.0 | 0.00 | 0.00 | 0.00 | 54 | 1099.7 |
| 20260505072805 | 60 | 141 | 3.0 | 7.0 | 0.00 | 0.00 | 0.00 | 54 | 1099.9 |
| 20260505072301 | 60 | 135 | 4.0 | 6.0 | 0.00 | 0.00 | 0.00 | 54 | 1099.7 |
| 20260505071756 | 60 | 134 | 4.0 | 6.0 | 0.00 | 0.00 | 0.00 | 54 | 1099.9 |
| 20260505071253 | 60 | 136 | 5.0 | 6.0 | 0.00 | 0.00 | 0.00 | 54 | 1100.0 |
| 20260505070751 | 60 | 133 | 4.0 | 6.0 | 0.00 | 0.00 | 0.00 | 54 | 1099.9 |
| 20260505070247 | 60 | 143 | 5.0 | 8.0 | 0.00 | 0.00 | 0.00 | 54 | 1099.9 |
| 20260505065743 | 60 | 132 | 4.0 | 7.0 | 0.00 | 0.00 | 0.00 | 54 | 1099.9 |
| 20260505065240 | 60 | 138 | 3.0 | 6.0 | 0.00 | 0.00 | 0.00 | 54 | 1100.0 |
| 20260505064737 | 60 | 134 | 5.0 | 7.0 | 0.00 | 0.00 | 0.00 | 54 | 1100.0 |
| 20260505064235 | 60 | 135 | 5.0 | 6.0 | 0.00 | 0.00 | 0.00 | 54 | 1100.0 |
| 20260505063732 | 60 | 134 | 4.0 | 7.0 | 0.00 | 0.00 | 0.00 | 54 | 1100.0 |
| 20260505063228 | 60 | 135 | 5.0 | 8.0 | 0.00 | 0.00 | 0.00 | 54 | 1099.9 |
| 20260505062725 | 60 | 145 | 6.0 | 8.0 | 0.00 | 0.00 | 0.00 | 53 | 1100.1 |
| 20260505062223 | 61 | 132 | 3.0 | 6.0 | 0.00 | 0.00 | 0.00 | 54 | 1100.0 |
| 20260505061719 | 61 | 133 | 4.0 | 6.0 | 0.00 | 0.00 | 0.00 | 53 | 1100.0 |
| 20260505061217 | 61 | 142 | 6.0 | 8.0 | 0.00 | 0.00 | 0.00 | 53 | 1100.2 |
| 20260505060714 | 60 | 141 | 5.0 | 6.0 | 0.00 | 0.00 | 0.00 | 53 | 1100.1 |
| 20260505060211 | 61 | 139 | 3.0 | 6.0 | 0.00 | 0.00 | 0.00 | 53 | 1100.0 |
| 20260505055706 | 61 | 122 | 3.0 | 6.0 | 0.00 | 0.00 | 0.00 | 53 | 1100.3 |
| 20260505055203 | 61 | 132 | 4.0 | 7.0 | 0.00 | 0.00 | 0.00 | 52 | 1100.1 |
| 20260505054700 | 60 | 133 | 1.0 | 3.0 | 0.00 | 0.00 | 0.00 | 54 | 1100.2 |
| 20260505054158 | 61 | 50 | 2.0 | 3.0 | 0.00 | 0.00 | 0.00 | 54 | 1100.3 |
| 20260505053656 | 61 | 135 | 5.0 | 7.0 | 0.00 | 0.00 | 0.00 | 53 | 1100.2 |
| 20260505053152 | 61 | 134 | 5.0 | 8.0 | 0.00 | 0.00 | 0.00 | 52 | 1100.4 |
| 20260505052649 | 61 | 140 | 5.0 | 8.0 | 0.00 | 0.00 | 0.00 | 52 | 1100.3 |
| 20260505052146 | 61 | 142 | 5.0 | 8.0 | 0.00 | 0.00 | 0.00 | 52 | 1100.4 |
| 20260505051643 | 61 | 119 | 4.0 | 7.0 | 0.00 | 0.00 | 0.00 | 52 | 1100.3 |
| 20260505051142 | 62 | 132 | 3.0 | 7.0 | 0.00 | 0.00 | 0.00 | 52 | 1100.3 |
| 20260505050639 | 62 | 133 | 4.0 | 8.0 | 0.00 | 0.00 | 0.00 | 52 | 1100.2 |
| 20260505050137 | 62 | 142 | 5.0 | 8.0 | 0.00 | 0.00 | 0.00 | 53 | 1100.2 |
| 20260505041607 | 62 | 134 | 5.0 | 7.0 | 0.00 | 0.00 | 0.00 | 51 | 1100.2 |
| 20260505041104 | 62 | 130 | 5.0 | 6.0 | 0.00 | 0.00 | 0.00 | 51 | 1100.2 |
| 20260505040601 | 62 | 148 | 4.0 | 6.0 | 0.00 | 0.00 | 0.00 | 51 | 1100.0 |
| 20260505040058 | 62 | 130 | 1.0 | 5.0 | 0.00 | 0.00 | 0.00 | 51 | 1100.2 |
| 20260505035555 | 62 | 109 | 2.0 | 3.0 | 0.00 | 0.00 | 0.00 | 51 | 1100.2 |
| 20260505035051 | 62 | 101 | 2.0 | 5.0 | 0.00 | 0.00 | 0.00 | 51 | 1100.3 |
| 20260505034548 | 62 | 126 | 4.0 | 8.0 | 0.00 | 0.00 | 0.00 | 50 | 1100.3 |
| 20260505034044 | 62 | 137 | 4.0 | 6.0 | 0.00 | 0.00 | 0.00 | 50 | 1100.3 |
| 20260505033542 | 62 | 120 | 5.0 | 6.0 | 0.00 | 0.00 | 0.00 | 50 | 1100.3 |
| 20260505033040 | 62 | 130 | 4.0 | 7.0 | 0.00 | 0.00 | 0.00 | 51 | 1100.1 |
| 20260505032537 | 62 | 136 | 6.0 | 7.0 | 0.00 | 0.00 | 0.00 | 51 | 1100.1 |
| 20260505032033 | 62 | 124 | 3.0 | 7.0 | 0.00 | 0.00 | 0.00 | 51 | 1100.4 |
| 20260505031531 | 62 | 131 | 4.0 | 7.0 | 0.00 | 0.00 | 0.00 | 51 | 1100.3 |
| 20260505031027 | 62 | 133 | 4.0 | 5.0 | 0.00 | 0.00 | 0.00 | 51 | 1100.2 |
| 20260505030524 | 62 | 132 | 3.0 | 6.0 | 0.00 | 0.00 | 0.00 | 51 | 1100.2 |
| 20260505030020 | 63 | 133 | 5.0 | 6.0 | 0.00 | 0.00 | 0.00 | 51 | 1100.5 |
| 20260505025516 | 63 | 144 | 5.0 | 7.0 | 0.00 | 0.00 | 0.00 | 52 | 1100.4 |
| 20260505025016 | 62 | 139 | 3.0 | 7.0 | 0.00 | 0.00 | 0.00 | 53 | 1100.4 |
| 20260505024512 | 63 | 140 | 3.0 | 6.0 | 0.00 | 0.00 | 0.00 | 54 | 1100.4 |
| 20260505024009 | 63 | 139 | 4.0 | 6.0 | 0.00 | 0.00 | 0.00 | 54 | 1100.4 |
| 20260505023506 | 63 | 154 | 5.0 | 6.0 | 0.00 | 0.00 | 0.00 | 54 | 1100.5 |
| 20260505023004 | 63 | 132 | 3.0 | 5.0 | 0.00 | 0.00 | 0.00 | 54 | 1100.4 |
| 20260505022501 | 63 | 136 | 2.0 | 6.0 | 0.00 | 0.00 | 0.00 | 55 | 1100.3 |
| 20260505021958 | 63 | 136 | 3.0 | 5.0 | 0.00 | 0.00 | 0.00 | 55 | 1100.1 |
| 20260505021454 | 64 | 128 | 3.0 | 6.0 | 0.00 | 0.00 | 0.00 | 54 | 1100.2 |
| 20260505020950 | 64 | 135 | 3.0 | 6.0 | 0.00 | 0.00 | 0.00 | 55 | 1100.1 |
| 20260505020445 | 64 | 140 | 3.0 | 5.0 | 0.00 | 0.00 | 0.00 | 55 | 1100.1 |
| 20260505015943 | 64 | 134 | 3.0 | 6.0 | 0.00 | 0.00 | 0.00 | 55 | 1100.2 |
| 20260505015440 | 64 | 138 | 3.0 | 6.0 | 0.00 | 0.00 | 0.00 | 55 | 1100.1 |
| 20260505014937 | 64 | 141 | 2.0 | 3.0 | 0.00 | 0.00 | 0.00 | 56 | 1100.0 |
| 20260505014433 | 64 | 132 | 3.0 | 5.0 | 0.00 | 0.00 | 0.00 | 55 | 1100.0 |
| 20260505013931 | 64 | 139 | 2.0 | 3.0 | 0.00 | 0.00 | 0.00 | 56 | 1099.9 |
| 20260505013428 | 64 | 123 | 1.0 | 3.0 | 0.00 | 0.00 | 0.00 | 56 | 1100.0 |
| 20260505012926 | 64 | 128 | 1.0 | 3.0 | 0.00 | 0.00 | 0.00 | 55 | 1099.7 |
| 20260505012423 | 64 | 141 | 2.0 | 2.0 | 0.00 | 0.00 | 0.00 | 56 | 1100.0 |
| 20260505011919 | 64 | 46 | 1.0 | 2.0 | 0.00 | 0.00 | 0.00 | 56 | 1099.7 |
| 20260505011416 | 64 | 56 | 2.0 | 2.0 | 0.00 | 0.00 | 0.00 | 56 | 1099.9 |
| 20260505010913 | 64 | 48 | 2.0 | 2.0 | 0.00 | 0.00 | 0.00 | 55 | 1099.7 |
| 20260505010408 | 64 | 55 | 2.0 | 3.0 | 0.00 | 0.00 | 0.00 | 55 | 1099.7 |
| 20260505005904 | 64 | 57 | 2.0 | 2.0 | 0.00 | 0.00 | 0.00 | 55 | 1099.5 |
| 20260505005401 | 65 | 69 | 1.0 | 2.0 | 0.00 | 0.00 | 0.00 | 55 | 1099.5 |
| 20260505004859 | 65 | 103 | 0.0 | 1.0 | 0.00 | 0.00 | 0.00 | 54 | 1099.6 |
| 20260505004355 | 65 | 120 | 1.0 | 2.0 | 0.00 | 0.00 | 0.00 | 54 | 1099.6 |
| 20260505003853 | 66 | 136 | 2.0 | 3.0 | 0.00 | 0.00 | 0.00 | 52 | 1099.6 |
| 20260505003350 | 66 | 129 | 2.0 | 2.0 | 0.00 | 0.00 | 0.00 | 52 | 1099.5 |
| 20260505002845 | 66 | 117 | 1.0 | 1.0 | 0.00 | 0.00 | 0.00 | 52 | 1099.5 |
| 20260505002342 | 66 | 117 | 0.0 | 2.0 | 0.00 | 0.00 | 0.00 | 51 | 1099.4 |
| 20260505001841 | 67 | 135 | 0.0 | 1.0 | 0.00 | 0.00 | 0.00 | 51 | 1099.4 |
| 20260505001337 | 68 | 142 | 1.0 | 1.0 | 0.00 | 0.00 | 0.00 | 49 | 1099.4 |
| 20260505000835 | 68 | 143 | 2.0 | 2.0 | 0.00 | 0.00 | 0.00 | 49 | 1099.3 |
| 20260505000333 | 68 | 146 | 1.0 | 3.0 | 0.00 | 0.00 | 0.00 | 49 | 1099.5 |
| 20260504235829 | 68 | 141 | 1.0 | 3.0 | 0.00 | 0.00 | 0.00 | 48 | 1099.4 |
| 20260504235326 | 68 | 143 | 1.0 | 2.0 | 0.00 | 0.00 | 0.00 | 49 | 1099.5 |
| 20260504234823 | 69 | 144 | 1.0 | 2.0 | 0.00 | 0.00 | 0.00 | 49 | 1099.6 |
| 20260504234320 | 69 | 140 | 0.0 | 3.0 | 0.00 | 0.00 | 0.00 | 48 | 1099.4 |
| 20260504233817 | 70 | 158 | 1.0 | 3.0 | 0.00 | 0.00 | 0.00 | 47 | 1099.5 |
| 20260504233313 | 71 | 139 | 0.0 | 3.0 | 0.00 | 0.00 | 0.00 | 47 | 1099.5 |
| 20260504232809 | 70 | 152 | 3.0 | 6.0 | 0.00 | 0.00 | 0.00 | 46 | 1099.5 |
| 20260504232307 | 70 | 143 | 3.0 | 5.0 | 0.00 | 0.00 | 0.00 | 49 | 1099.5 |
| 20260504231804 | 70 | 111 | 2.0 | 5.0 | 0.00 | 0.00 | 0.00 | 49 | 1099.6 |
| 20260504231300 | 70 | 153 | 5.0 | 8.0 | 0.00 | 0.00 | 0.00 | 48 | 1099.6 |
| 20260504230755 | 69 | 156 | 4.0 | 5.0 | 0.00 | 0.00 | 0.00 | 49 | 1099.5 |
| 20260504230254 | 69 | 128 | 4.0 | 8.0 | 0.00 | 0.00 | 0.00 | 49 | 1099.3 |
| 20260504225753 | 69 | 124 | 6.0 | 7.0 | 0.00 | 0.00 | 0.00 | 49 | 1099.5 |
| 20260504225249 | 69 | 153 | 8.0 | 9.0 | 0.00 | 0.00 | 0.00 | 49 | 1099.4 |
| 20260504224746 | 69 | 156 | 3.0 | 8.0 | 0.00 | 0.00 | 0.00 | 49 | 1099.5 |
| 20260504224243 | 69 | 143 | 5.0 | 8.0 | 0.00 | 0.00 | 0.00 | 48 | 1099.6 |
| 20260504223739 | 69 | 153 | 4.0 | 7.0 | 0.00 | 0.00 | 0.00 | 49 | 1099.4 |
| 20260504223235 | 70 | 115 | 4.0 | 8.0 | 0.00 | 0.00 | 0.00 | 49 | 1099.5 |
| 20260504222732 | 70 | 116 | 4.0 | 5.0 | 0.00 | 0.00 | 0.00 | 47 | 1099.6 |
| 20260504222229 | 70 | 177 | 1.0 | 6.0 | 0.00 | 0.00 | 0.00 | 47 | 1099.5 |
| 20260504221726 | 71 | 164 | 4.0 | 9.0 | 0.00 | 0.00 | 0.00 | 46 | 1099.7 |
| 20260504221223 | 71 | 139 | 3.0 | 9.0 | 0.00 | 0.00 | 0.00 | 45 | 1099.6 |
| 20260504220720 | 71 | 150 | 5.0 | 8.0 | 0.00 | 0.00 | 0.00 | 45 | 1099.6 |
| 20260504220217 | 71 | 168 | 3.0 | 7.0 | 0.00 | 0.00 | 0.00 | 44 | 1099.6 |
| 20260504215714 | 71 | 147 | 1.0 | 10.0 | 0.00 | 0.00 | 0.00 | 43 | 1099.6 |
| 20260504215211 | 71 | 267 | 3.0 | 5.0 | 0.00 | 0.00 | 0.00 | 44 | 1099.7 |
| 20260504214707 | 71 | 174 | 3.0 | 7.0 | 0.00 | 0.00 | 0.00 | 42 | 1099.6 |
| 20260504214203 | 71 | 165 | 7.0 | 9.0 | 0.00 | 0.00 | 0.00 | 43 | 1099.6 |
| 20260504213700 | 71 | 241 | 2.0 | 5.0 | 0.00 | 0.00 | 0.00 | 43 | 1099.4 |
| 20260504213157 | 72 | 138 | 3.0 | 8.0 | 0.00 | 0.00 | 0.00 | 40 | 1099.5 |
| 20260504212654 | 72 | 138 | 1.0 | 3.0 | 0.00 | 0.00 | 0.00 | 42 | 1099.5 |
| 20260504212150 | 72 | 173 | 3.0 | 8.0 | 0.00 | 0.00 | 0.00 | 39 | 1099.5 |
| 20260504211648 | 72 | 149 | 5.0 | 9.0 | 0.00 | 0.00 | 0.00 | 39 | 1099.4 |
| 20260504211144 | 72 | 142 | 4.0 | 8.0 | 0.00 | 0.00 | 0.00 | 40 | 1099.5 |
| 20260504210642 | 73 | 138 | 6.0 | 8.0 | 0.00 | 0.00 | 0.00 | 40 | 1099.2 |
| 20260504210138 | 71 | 172 | 1.0 | 6.0 | 0.00 | 0.00 | 0.00 | 41 | 1099.5 |
| 20260504205636 | 70 | 314 | 1.0 | 3.0 | 0.00 | 0.00 | 0.00 | 44 | 1099.6 |
| 20260504205133 | 71 | 164 | 2.0 | 6.0 | 0.00 | 0.00 | 0.00 | 41 | 1099.6 |
| 20260504204631 | 73 | 224 | 1.0 | 3.0 | 0.00 | 0.00 | 0.00 | 40 | 1099.6 |
| 20260504204130 | 73 | 129 | 3.0 | 6.0 | 0.00 | 0.00 | 0.00 | 39 | 1099.7 |
| 20260504203628 | 73 | 149 | 2.0 | 5.0 | 0.00 | 0.00 | 0.00 | 41 | 1099.6 |
| 20260504203125 | 71 | 161 | 0.0 | 3.0 | 0.00 | 0.00 | 0.00 | 42 | 1099.9 |
| 20260504202625 | 72 | 149 | 4.0 | 9.0 | 0.00 | 0.00 | 0.00 | 40 | 1099.9 |
| 20260504202123 | 69 | 132 | 2.0 | 3.0 | 0.00 | 0.00 | 0.00 | 41 | 1099.9 |
| 20260504201619 | 72 | 137 | 7.0 | 8.0 | 0.00 | 0.00 | 0.00 | 40 | 1100.0 |
| 20260504201117 | 74 | 149 | 3.0 | 9.0 | 0.00 | 0.00 | 0.00 | 39 | 1099.9 |
| 20260504200614 | 74 | 145 | 4.0 | 9.0 | 0.00 | 0.00 | 0.00 | 39 | 1099.9 |
| 20260504200110 | 76 | 204 | 2.0 | 7.0 | 0.00 | 0.00 | 0.00 | 38 | 1100.0 |
| 20260504195606 | 76 | 125 | 4.0 | 9.0 | 0.00 | 0.00 | 0.00 | 36 | 1100.2 |
| 20260504195057 | 76 | 179 | 2.0 | 5.0 | 0.00 | 0.00 | 0.00 | 37 | 1100.3 |
| 20260504194554 | 73 | 153 | 3.0 | 7.0 | 0.00 | 0.00 | 0.00 | 38 | 1100.1 |
| 20260504194049 | 74 | 314 | 2.0 | 7.0 | 0.00 | 0.00 | 0.00 | 40 | 1100.3 |
| 20260504193546 | 72 | 309 | 2.0 | 5.0 | 0.00 | 0.00 | 0.00 | 41 | 1100.4 |
| 20260504193045 | 73 | 136 | 8.0 | 9.0 | 0.00 | 0.00 | 0.00 | 39 | 1100.5 |
| 20260504192543 | 70 | 143 | 3.0 | 3.0 | 0.00 | 0.00 | 0.00 | 42 | 1100.7 |
| 20260504192041 | 68 | 112 | 2.0 | 5.0 | 0.00 | 0.00 | 0.00 | 44 | 1100.6 |
| 20260504191538 | 72 | 159 | 4.0 | 8.0 | 0.00 | 0.00 | 0.00 | 41 | 1100.6 |
| 20260504191034 | 73 | 144 | 1.0 | 7.0 | 0.00 | 0.00 | 0.00 | 39 | 1100.7 |
| 20260504190531 | 72 | 120 | 2.0 | 7.0 | 0.00 | 0.00 | 0.00 | 40 | 1100.6 |
| 20260504190027 | 70 | 149 | 3.0 | 5.0 | 0.00 | 0.00 | 0.00 | 42 | 1100.8 |
| 20260504185524 | 69 | 10 | 5.0 | 7.0 | 0.00 | 0.00 | 0.00 | 42 | 1100.6 |
| 20260504185020 | 71 | 141 | 2.0 | 3.0 | 0.00 | 0.00 | 0.00 | 41 | 1100.7 |
| 20260504184516 | 70 | 143 | 1.0 | 2.0 | 0.00 | 0.00 | 0.00 | 41 | 1100.8 |
| 20260504184012 | 68 | 333 | 2.0 | 6.0 | 0.00 | 0.00 | 0.00 | 41 | 1100.9 |
| 20260504183509 | 72 | 158 | 2.0 | 3.0 | 0.00 | 0.00 | 0.00 | 41 | 1100.8 |
| 20260504183008 | 73 | 15 | 1.0 | 8.0 | 0.00 | 0.00 | 0.00 | 41 | 1101.0 |
| 20260504182503 | 71 | 292 | 2.0 | 5.0 | 0.00 | 0.00 | 0.00 | 40 | 1100.9 |
| 20260504182001 | 70 | 171 | 3.0 | 5.0 | 0.00 | 0.00 | 0.00 | 45 | 1101.0 |
| 20260504181458 | 69 | 263 | 2.0 | 3.0 | 0.00 | 0.00 | 0.00 | 45 | 1101.1 |
| 20260504180956 | 71 | 352 | 1.0 | 3.0 | 0.00 | 0.00 | 0.00 | 40 | 1101.4 |
| 20260504180455 | 70 | 162 | 4.0 | 7.0 | 0.00 | 0.00 | 0.00 | 44 | 1101.5 |
| 20260504175953 | 65 | 39 | 0.0 | 3.0 | 0.00 | 0.00 | 0.00 | 47 | 1101.5 |
| 20260504175449 | 68 | 13 | 3.0 | 5.0 | 0.00 | 0.00 | 0.00 | 46 | 1101.5 |
| 20260504174947 | 69 | 7 | 5.0 | 9.0 | 0.00 | 0.00 | 0.00 | 45 | 1101.5 |
| 20260504174444 | 66 | 243 | 1.0 | 5.0 | 0.00 | 0.00 | 0.00 | 48 | 1101.7 |
| 20260504173941 | 66 | 149 | 1.0 | 7.0 | 0.00 | 0.00 | 0.00 | 48 | 1101.5 |
| 20260504173437 | 66 | 262 | 3.0 | 6.0 | 0.00 | 0.00 | 0.00 | 46 | 1101.7 |
| 20260504172936 | 67 | 251 | 2.0 | 7.0 | 0.00 | 0.00 | 0.00 | 45 | 1101.6 |
| 20260504172431 | 64 | 140 | 1.0 | 2.0 | 0.00 | 0.00 | 0.00 | 47 | 1101.8 |
| 20260504171928 | 68 | 146 | 6.0 | 8.0 | 0.00 | 0.00 | 0.00 | 44 | 1101.9 |
| 20260504171425 | 66 | 237 | 2.0 | 8.0 | 0.00 | 0.00 | 0.00 | 47 | 1101.8 |
| 20260504170922 | 68 | 177 | 3.0 | 6.0 | 0.00 | 0.00 | 0.00 | 45 | 1102.0 |
| 20260504170418 | 66 | 168 | 5.0 | 7.0 | 0.00 | 0.00 | 0.00 | 47 | 1101.8 |
| 20260504160337 | 64 | 177 | 3.0 | 6.0 | 0.00 | 0.00 | 0.00 | 47 | 1102.5 |
| 20260504150802 | 57 | 272 | 4.0 | 6.0 | 0.00 | 0.00 | 0.00 | 54 | 1103.1 |
| 20260504150259 | 57 | 226 | 3.0 | 6.0 | 0.00 | 0.00 | 0.00 | 51 | 1103.1 |
| 20260504141229 | 56 | 186 | 3.0 | 5.0 | 0.00 | 0.00 | 0.00 | 54 | 1103.2 |
| 20260504140725 | 56 | 200 | 2.0 | 3.0 | 0.00 | 0.00 | 0.00 | 55 | 1103.1 |
| 20260504140220 | 54 | 315 | 2.0 | 2.0 | 0.00 | 0.00 | 0.00 | 58 | 1103.2 |
| 20260504130649 | 54 | 4 | 0.0 | 1.0 | 0.00 | 0.00 | 0.00 | 48 | 1102.8 |
| 20260504130145 | 55 | 49 | 1.0 | 1.0 | 0.00 | 0.00 | 0.00 | 46 | 1103.2 |
| 20260504120110 | 52 | 52 | 2.0 | 2.0 | 0.00 | 0.00 | 0.00 | 61 | 1102.8 |
| 20260504110537 | 53 | 110 | 1.0 | 1.0 | 0.00 | 0.00 | 0.00 | 54 | 1102.3 |
| 20260504100500 | 54 | 1 | 1.0 | 2.0 | 0.00 | 0.00 | 0.00 | 53 | 1102.3 |